Location: Krasnoyarskiy Pitomnik
(51.1333°N, 71.6167°E)
Time: 18:11:04
(UTC+00:00)

Vanguard 2 - Pass Details

Date: 01 May 2024
Orbit: 553 x 2914 km, 32.9° (Epoch: 22 May)

Event Time Altitude Azimuth Distance (km) Brightness Sun altitude
Exits shadow 19:47:48 32° 195° (SSW) 3,245 10.1 -23.0°
Maximum altitude 19:50:37 35° 174° (S) 3,310 10.2 -22.9°
Drops below altitude 10° 20:04:22 10° 118° (ESE) 5,607 11.8 -22.4°
Sets 20:09:36 0° 111° (ESE) 6,736 12.3 -22.2°
